Weather History for Lander, WY

Change the Weather History Date:

Thursday, August 1, 2013

  Actual Average Record
Temperature  
Mean Temperature 74 °F 72 °F  
Max Temperature 93 °F 88 °F 99 °F (2000)
Min Temperature 54 °F 57 °F 40 °F (1903)
Degree Days  
Heating Degree Days 0 0  
Month to date heating degree days 0 0  
Since 1 June heating degree days 54 142  
Since 1 July heating degree days 0 16  
Cooling Degree Days 9 7  
Month to date cooling degree days 9 7  
Year to date cooling degree days 426 284  
Since 1 June cooling degree days 417 279  
Growing Degree Days 24 (Base 50)    
Moisture  
Dew Point 42 °F    
Average Humidity 36    
Maximum Humidity 57    
Minimum Humidity 14    
Precipitation  
Precipitation 0.00 in 0.03 in 0.39 in (1984)
Month to date precipitation 0.00 0.03  
Year to date precipitation 7.85 8.30  
Snow  
Snow 0.00 in 0.00 in - ()
Month to date snowfall 0.0 0.0  
Since 1 June snowfall 0.0 0.1  
Since 1 July snowfall 0.0 0.0  
Snow Depth 0.00 in    
Sea Level Pressure  
Sea Level Pressure 29.84 in    
Wind  
Wind Speed 13 mph (WSW)    
Max Wind Speed 46 mph    
Max Gust Speed 58 mph    
Visibility 10 miles    
Events      
T = Trace of Precipitation, MM = Missing Value Source: NWS Daily Summary

Daily Weather History Graph

Daily Weather History Graph

Search for Another Location

Airport:

Trip Planner

Search our weather history database for the weather conditions in past years. The results will help you decide how hot, cold, wet, or windy it might be!

Date:

Astronomy

Aug. 01, 2013 Rise Set
Actual Time 6:06 AM MDT 8:35 PM MDT
Civil Twilight 5:34 AM MDT 9:07 PM MDT
Nautical Twilight 4:54 AM MDT 9:46 PM MDT
Astronomical Twilight 4:09 AM MDT 10:31 PM MDT
Moon 1:44 AM MDT (8/1) 4:47 PM MDT (8/1)
Length of Visible Light 15h 32m
Length of Day
14h 28m
Waning Crescent, 23% of the Moon is Illuminated
Aug 1
Waning Crescent
Aug 6
New
Aug 14
First Quarter
Aug 20
Full
Aug 28
Last Quarter

Hourly Weather History & Observations

Time (MDT) Temp. Dew Point Humidity Pressure Visibility Wind Dir Wind Speed Gust Speed Precip Events Conditions
12:53 AM 66.0 °F 41.0 °F 40% 30.02 in 10.0 mi WSW 12.7 mph - N/A   Clear
1:53 AM 64.0 °F 41.0 °F 43% 30.00 in 10.0 mi West 10.4 mph - N/A   Clear
2:53 AM 62.1 °F 42.1 °F 48% 30.01 in 10.0 mi West 9.2 mph - N/A   Clear
3:53 AM 63.0 °F 41.0 °F 45% 29.99 in 10.0 mi WSW 9.2 mph - N/A   Clear
4:53 AM 61.0 °F 41.0 °F 48% 29.97 in 10.0 mi West 9.2 mph - N/A   Clear
5:53 AM 57.0 °F 42.1 °F 57% 29.99 in 10.0 mi West 5.8 mph - N/A   Clear
6:53 AM 61.0 °F 42.1 °F 50% 29.98 in 9.0 mi WSW 9.2 mph - N/A   Clear
8:53 AM 66.9 °F 46.0 °F 47% 29.98 in 10.0 mi East 3.5 mph - N/A   Clear
9:53 AM 73.0 °F 46.0 °F 38% 29.96 in 10.0 mi Calm Calm - N/A   Clear
10:53 AM 73.9 °F 45.0 °F 35% 29.93 in 10.0 mi Calm Calm - N/A   Clear
11:53 AM 78.1 °F 45.0 °F 31% 29.89 in 10.0 mi Variable 3.5 mph - N/A   Clear
12:53 PM 82.0 °F 46.0 °F 28% 29.83 in 10.0 mi NNE 5.8 mph - N/A   Partly Cloudy
1:53 PM 84.9 °F 45.0 °F 25% 29.80 in 10.0 mi North 6.9 mph - N/A   Clear
2:53 PM 88.0 °F 42.1 °F 20% 29.76 in 10.0 mi NNE 4.6 mph - N/A   Clear
3:53 PM 91.0 °F 39.9 °F 17% 29.70 in 10.0 mi North 8.1 mph - N/A   Clear
4:53 PM 88.0 °F 37.0 °F 16% 29.68 in 10.0 mi NNE 4.6 mph - N/A   Clear
5:53 PM 91.9 °F 36.0 °F 14% 29.65 in 10.0 mi SSE 6.9 mph - N/A   Clear
6:42 PM 84.2 °F 42.8 °F 23% 29.88 in 9.0 mi SSW 36.8 mph 49.5 mph N/A   Clear
6:53 PM 82.9 °F 43.0 °F 24% 29.67 in 10.0 mi SSW 26.5 mph 43.7 mph N/A   Clear
7:53 PM 78.1 °F 44.1 °F 30% 29.68 in 10.0 mi SSW 43.7 mph 51.8 mph N/A   Clear
8:53 PM 77.0 °F 43.0 °F 30% 29.69 in 10.0 mi SSW 29.9 mph 39.1 mph N/A   Clear
9:53 PM 75.9 °F 43.0 °F 31% 29.69 in 10.0 mi SW 38.0 mph 49.5 mph N/A   Clear
10:53 PM 73.9 °F 41.0 °F 30% 29.70 in 10.0 mi SW 21.9 mph 34.5 mph N/A   Clear
11:53 PM 73.9 °F 39.9 °F 29% 29.67 in 10.0 mi SSW 34.5 mph 48.3 mph N/A   Clear